www.pogodaiklimat.ru

Погода и климат >> Архив погоды >> Индия >> Махараштра >> Харнай


ПОГОДА в Харнае

  • Прогноз погоды в Харнае
  • Монитор погоды в Харнае

АРХИВ ПОГОДЫ в Харнае

Время (UTC), дата Ветер
(напр.,м/с)
 
Видим.   Явления Облачность Т
(С)
Тd
(С)
f
(%)
Тe
(С)
Тes
(С)
Комфортность P
(гПа)
Po
(гПа)
Тmin
(С)
Tmax
(С)
R
(мм)
R24
(мм)
S
(см)
06 18.08 штиль 0 4000 м слаб. морось {дождь, туман} 8/3 300 м
[Frnb Ac As]
+29.6 -20.1 3 +25 +35 комфорт 1011.4 1009.1 0.8
09 18.08 З 1 4000 м мгла {туман} 8/4 600 м
[Cu Sc Ac As]
+30.0 -20.1 3 +25 +32 комфорт 1010.1 1007.8 0.8
12 18.08 штиль 0 4000 м мгла {туман} 8/4 600 м
[Cu Sc Ac As]
+29.1 0.0 15 +26 +28 жарко 1009.2 1006.9 +31.5 0.8
03 19.08 штиль 0 4000 м мгла {туман} 8/4 300 м
[Frnb Ac As]
+28.6 0.0 16 +26 +29 жарко 1011.3 1009.0 +25.1 0.8
06 19.08 штиль 0 4000 м 5/3 300 м
[Frnb Ac As]
+30.6 -20.1 3 +26 +41 жарко 1012.7 1010.4
09 19.08 З 1 10 км 6/4 600 м
[Sc diur, vesp Ac As]
+31.4 -20.1 3 +27 +36 жарко 1011.0 1008.7
12 19.08 З 1 10 км 6/4 600 м
[Sc diur, vesp Ac As]
+30.0 0.0 14 +27 +28 жарко 1009.7 1007.4 +32.1
03 20.08 штиль 0 4000 м мгла {туман} 4/1 600 м
[Sc Ac As]
+28.7 0.0 16 +26 +31 жарко 1012.5 1010.2 +25.6 3
06 20.08 штиль 0 4000 м в посл. час дождь {морось, туман} 5/3 300 м
[Frnb Ac As]
+27.3 -20.1 3 +23 +38 комфорт 1012.8 1010.5 7
09 20.08 С 3 4000 м мгла {дождь, туман} 6/4 600 м
[Cu Sc Ac As]
+28.6 -20.1 3 +24 +31 комфорт 1010.6 1008.3 7
12 20.08 СЗ 2 10 км 5/4 600 м
[Cu Sc Ac As]
+29.6 0.0 15 +27 +28 жарко 1008.8 1006.5 +30.9
03 21.08 ЮЗ 1 4000 м мгла {туман} 9/4 300 м
[Frnb Ac As]
+27.8 0.0 16 +25 +27 комфорт 1011.1 1008.8 +26.4 7
06 21.08 ЮЗ 1 10 км 6/3 300 м
[Frnb Ac As]
+30.3 -20.1 3 +26 +37 жарко 1011.5 1009.2
09 21.08 З 1 10 км 6/4 600 м
[Sc diur, vesp Ac As]
+30.0 -20.1 3 +25 +35 комфорт 1010.2 1007.9
12 21.08 З 2 10 км 8/4 600 м
[Cu Sc Ac As]
+29.4 0.0 15 +27 +28 жарко 1009.0 1006.7 +31.3
03 22.08 штиль 0 4000 м морось {туман} 10/4 300 м
[Frnb Ac As]
+27.5 0.0 17 +25 +27 комфорт 1010.8 1008.5 +25.6 3
06 22.08 З 1 4000 м мгла {туман} 8/4 600 м
[Cu Sc Ac As]
+29.6 0.0 15 +27 +34 жарко 1010.8 1008.5
09 22.08 З 2 10 км 8/4 600 м
[Cu Sc Ac As]
+29.0 -20.1 3 +24 +30 комфорт 1009.0 1006.7
12 22.08 штиль 0 10 км 6/3 300 м
[Frnb Ac As]
+30.0 0.0 14 +27 +29 жарко 1008.4 1006.1 +30.7
03 23.08 С 1 4000 м мгла {дождь, туман} 6/3 300 м
[Frnb Ac As]
+27.8 -20.1 3 +23 +27 комфорт 1010.0 1007.7 +24.6 5
06 23.08 штиль 0 4000 м морось {туман} 10/3 300 м
[Frnb Ac As]
+25.6 0.0 19 +24 +30 комфорт 1010.9 1008.6 13
09 23.08 штиль 0 4000 м мгла {туман} 9/5 600 м
[Cu Sc Ac As]
+28.0 0.0 16 +26 +31 жарко 1008.9 1006.6 13
12 23.08 штиль 0 4000 м слаб. морось {туман} 8/3 300 м
[Frnb Ac As]
+29.1 -20.1 3 +25 +26 комфорт 1008.3 1006.0 +30.5 13
03 24.08 ЮЗ 2 10 км 6/4 600 м
[Sc diur, vesp Ac As Ci fib]
+28.4 0.0 16 +26 +29 жарко 1010.2 1007.9 +27.5 13
06 24.08 ЮЗ 2 10 км 6/4 600 м
[Sc diur, vesp Ac As]
+30.2 0.0 14 +27 +37 жарко 1010.9 1008.6
09 24.08 ЮЗ 2 10 км 6/4 600 м
[Sc diur, vesp Ac As]
+30.0 -20.1 3 +25 +34 комфорт 1008.8 1006.5
12 24.08 ЮЗ 1 10 км дождь 5/3 600 м
[Sc diur, vesp Ac As]
+27.8 -20.1 3 +23 +25 комфорт 1007.7 1005.4 +31.2 1
03 25.08 ЮЗ 1 4000 м мгла {туман} 6/3 300 м
[Frnb Ac As]
+28.8 -20.1 3 +24 +27 комфорт 1009.1 1006.8 +25.6 2

 

Местоположение метеостанции Харнай (Махараштра, Индия): широта 17.82 долгота 73.10 высота над уровнем моря 20 м.

В архиве по умолчанию представлена погода в Харнае за последнюю неделю. Архивные данные за месяц целиком и за предыдущие месяцы, начиная с января 2011 года, Вы можете получить, выбрав интересующий диапазон дат из раскрывающегося списка и нажав кнопку "Ввод!".


*Определитесь, кто Вы:
робот инопланетянин человек

Внимание! Время в таблицах - всемирное. Для получения местного времени необходимо прибавить поправку, которая равна 5.5 ч.

Смотрите также архив погоды в соседних городах и на ближайших метеорологических станциях:

Погода в Махабалешваре (Махараштра, Индия) (62 км)
Погода в Байре (Махараштра, Индия) (77 км)
Погода в Алибаге (Махараштра, Индия) (93 км)
Погода в Ратнагири (Махараштра, Индия) (97 км)
Погода в Сатаре (Махараштра, Индия) (106 км)
Погода в Пуне (Махараштра, Индия) (112 км)
Погода в Мумбай Колаба (Махараштра, Индия) (124 км)
Погода в Матеране (Махараштра, Индия) (130 км)
Погода в Мумбаи (Махараштра, Индия) (147 км)
Погода в Колхапуре (Махараштра, Индия) (173 км)

Пояснения к столбцам:

Ветер - указаны скорость ветра в м/с - средняя за 10 мин, порывы в срок и между сроками (в фигурных скобках) и направление, откуда дует ветер: С - северный, СВ - северо-восточный, В - восточный, ЮВ - юго-восточный, Ю - южный, ЮЗ - юго-западный, З - западный, СЗ - северо-западный.
Видимость - горизонтальная дальность видимости в метрах или километрах. При видимости от 1 до 10 км при отсутствии осадков обычно наблюдается дымка, при ухудшении видимости до 1 км и менее - туман. В сухую погоду видимость может ухудшаться дымом, пылью или мглою.
Явления - указаны атмосферные явления, наблюдавшиеся в срок или в последний час перед сроком; фигурными скобками обозначены явления, наблюдавшиеся между сроками (за 1-3 часа до срока); квадратными скобками обозначены град или гололедные отложения с указанием их диаметра в мм.
Облачность - указаны через наклонную черту общая и нижняя облачность в баллах и высота нижней границы облаков в метрах; квадратными скобками обозначены формы облаков: Ci - перистые, Cs - перисто-слоистые, Cc - перисто-кучевые, Ac - высококучевые, As - высокослоистые, Sc - слоисто-кучевые, Ns - слоисто-дождевые, Cu - кучевые, Cb - кучево-дождевые. Подробнее классификацию облаков см. в Атласе облаков (PDF).
T - Температура воздуха - температура, измеренная на высоте 2 м над землей.
Td - Температура точки росы - температура, при понижении до которой содержащийся в воздухе водяной пар достигнет насыщения.
f - Относительная влажность воздуха - влажноcть воздуха, измеренная на высоте 2 м над землей.
Te - Эффективная температура - температура, которую ощущает одетый по сезону человек в тени. Характеристика душности погоды. При расчете учитывается влияние влажности воздуха и скорости ветра на теплоощущения человека.
Tes - Эффективная температура на солнце - температура, которую ощущает человек, с поправкой на солнечный нагрев. Характеристика знойности погоды. Зависит от высоты солнца над горизонтом, облачности и скорости ветра. Ночью, в пасмурную погоду, а также при ветре 12 м/с и более поправка равна нулю.
P - Атмосферное давление - приведенное к уровню моря атмосферное давление.
Po - Атмосферное давление - измеренное на уровне метеостанции атмосферное давление.
Tmin - Минимальная температура - минимум температуры воздуха на высоте 2 м над землей.
Tmax - Максимальная температура - максимум температуры воздуха на высоте 2 м над землей.
R - Количество осадков - Количество выпавших осадков за период времени, мм. При наведении курсора мыши на число - период времени, за который выпало указанное количество осадков.
R24 - Количество осадков - Количество выпавших осадков за 24 часа, мм.
S - Снежный покров - Высота снежного покрова, см. При наведении курсора мыши на число - состояние снежного покрова и степень покрытия местности в баллах.